sat.trackr.live / text

‹ back to catalog

YAOGAN-30 05A

NORAD 43170 · 2018-011B

PAYLOAD ACTIVE UNKNOWN

§ Identity

Operator
Country
PRC
Launch date
2018-01-25
Launch site
XICLF
Launch vehicle
Mass (kg)
RCS (m²)

External: N2YO · Heavens-Above · Gunter

§ Orbital elements

Epoch: 2026-09-03T19:50:39.458112Z

Period
95.81 min
Inclination
34.9967°
Eccentricity
0.0004051
Mean motion
15.02968802 rev/d
Perigee alt
554.9 km
Apogee alt
560.6 km
Semi-major
6,935.9 km
B*
1.2071e-4
RAAN
31.5432°
Arg perigee
301.3214°
Mean anomaly
58.7097°
Rev number
46,998

§ Raw data

YAOGAN-30 05A1 43170U 18011B   26246.82684558  .00001627  00000+0  12071-3 0  99912 43170  34.9967  31.5432 0004051 301.3214  58.7097 15.02968802469980

JSON: /api/v1/satellites/43170 · /tle

For live sub-satellite position, see the globe view (requires WebGL).

§ Visibility from observer

Set your observer location to see the next 7 days of passes ≥ 10°. The values pass through the URL so the page stays shareable.

No JS? Fill the form by hand. The geolocation button needs JavaScript.